Hourly Data Report for July 31, 2021

BONAVISTA
NEWFOUNDLAND
Current Station Operator: ECCC - MSC

48°40'02.000" N
53°06'51.000" W
25.60 m
8400601
71178
AVA

Download Data

Hourly Data (July 2021)
Hourly Data Report for July 31, 2021
TIME
LST
Temp Definition
°C
Dew Point Definition
°C
Rel Hum Definition
%
Precip. Amount Definition
mm

Wind Dir Definition
10's deg

Wind Spd Definition
km/h
Visibility Definition
km
Stn Press Definition
kPa
Hmdx Definition


Wind Chill Definition


Weather Definition


00:30 14.4 13.8 96 0.7 16 44   100.32     LegendNANA
01:30 14.8 14.2 97 0.3 16 39   100.20     LegendNANA
02:30 15.1 14.6 97 2.8 17 42   100.08     LegendNANA
03:30 15.4 14.9 97 0.0 17 36   100.04     LegendNANA
04:30 15.9 15.4 97 0.0 17 36   99.96     LegendNANA
05:30 15.8 15.4 97 0.0 17 38   99.90     LegendNANA
06:30 16.1 15.7 97 0.0 18 36   99.85     LegendNANA
07:30 15.9 15.5 98 1.5 16 44   99.75     LegendNANA
08:30 16.5 16.0 97 1.7 18 42   99.68     LegendNANA
09:30 18.6 17.8 95 0.0 18 36   99.62     LegendNANA
10:30 19.3 17.7 91 0.0 18 39   99.55     LegendNANA
11:30 19.9 17.2 84 0.0 20 42   99.56     LegendNANA
12:30 20.3 16.6 79 0.0 20 45   99.51 25   LegendNANA
13:30 20.7 16.4 76 0.0 21 49   99.55 26   LegendNANA
14:30 21.3 16.0 72 0.0 21 39   99.58 26   LegendNANA
15:30 20.9 14.2 65 0.0 23 41   99.61     LegendNANA
16:30 20.5 13.6 65 0.0 23 52   99.68     LegendNANA
17:30 20.0 13.3 65 0.0 23 47   99.79     LegendNANA
18:30 18.8 13.2 70 0.0 23 49   99.87     LegendNANA
19:30 17.7 13.3 75 0.0 22 40   99.94     LegendNANA
20:30 17.3 12.9 76 0.0 22 36   100.06     LegendNANA
21:30 16.2 13.2 82 0.0 22 32   100.10     LegendNANA
22:30 16.3 12.9 81 0.0 22 35   100.09     LegendNANA
23:30 16.4 12.8 79 0.0 22 42   100.09     LegendNANA

Notes on Data Quality.

Legend

  • E = Estimated
  • M = Missing
  • NA = Not Available*
  • [empty] = Indicates an unobserved value
Date modified: